sat.trackr.live / text

‹ back to catalog

ABS-2

NORAD 39508 · 2014-006A

PAYLOAD ACTIVE UNKNOWN

§ Identity

Operator
Country
ABS
Launch date
2014-02-06
Launch site
FRGUI
Launch vehicle
Mass (kg)
RCS (m²)
0.35

Purposes: comms

External: N2YO · Heavens-Above · Gunter

§ Orbital elements

Epoch: 2026-05-25T02:23:15.613728Z

Period
1,436.09 min
Inclination
0.0566°
Eccentricity
0.0003981
Mean motion
1.00272036 rev/d
Perigee alt
35,769.7 km
Apogee alt
35,803.3 km
Semi-major
42,164.7 km
B*
0.0000e+0
RAAN
91.5649°
Arg perigee
326.2118°
Mean anomaly
295.6577°
Rev number
4,504

§ Raw data

ABS-21 39508U 14006A   26145.09948627 -.00000089  00000+0  00000+0 0  99952 39508   0.0566  91.5649 0003981 326.2118 295.6577  1.00272036 45047

JSON: /api/v1/satellites/39508 · /tle

For live sub-satellite position, see the globe view (requires WebGL).

§ Visibility from observer

Set your observer location to see the next 7 days of passes ≥ 10°. The values pass through the URL so the page stays shareable.

No JS? Fill the form by hand. The geolocation button needs JavaScript.